星链-34127 (STARLINK-34127)

导读

STARLINK-34127是美国SpaceX公司星链(Starlink)星座的卫星,于2025年5月4日发射,属于低轨互联网卫星。星链项目旨在构建全球覆盖的卫星互联网星座,为全球用户提供高速低延迟宽带服务。该卫星由猎鹰9号火箭送入轨道,依托可重复使用技术降低发射成本,助力星链组网扩张,目前星链在轨卫星已超九千颗,持续推动全球卫星互联网服务普及。

基本信息
目录编号:
63810
目录名称:
STARLINK-34127
国际标识:
2025-092G
轨道中心:
EARTH
卫星名称:
星链-34127
卫星全名:
星链-34127 (STARLINK-34127)
卫星状态:
在轨 (已飞行488 天)
发射日期:
2025-05-04 UTC
国别 :
美国 (US)
星等 :
--
轨道信息
数据来源 国际轨道数据
星历时间: 2026-09-04T09:09:23+0800
11小时前
查看轨道信息
半长轴: 6861.164km
偏心率: 0.0001366
轨道倾角: 43.003°
近地点辐角 269.224°
升交点赤经 245.150°
平近点角 90.845°
近地点: 482.089km
远地点: 483.965km
周期: 94.266分钟
每日圈数: 15.275877
详细信息
固有亮度:
5
最大亮度:
2.5
卫星平台:
Starlink V1.0
覆盖范围:
全球
运营商:
太空探索技术公司
运营商所在国:
美国
制造商(研发单位):
太空探索技术公司
制造商所在国:
美国
使用方式:
暂无
卫星简介
Starlink 计划是 SpaceX 推出的全球卫星互联网项目,通过发射低轨道卫星,为全球尤其是偏远地区提供高速、低延迟的互联网服务。自 2019 年起,Starlink 已部署数千颗卫星,旨在缩小全球数字鸿沟,推动互联网普及。该项目还为军事、航空等行业提供通信支持,带来广泛经济效益。
2D轨道图
3D轨道图
轨道高度分析图
轨道倾角分析图
轨道综合分析图
查看轨道综合分析图
交会数据列表
事件ID 空间交会对象 最接近时刻(TCA) 交会距离 交会风险概率(CRP) 交会风险指数(CRI) 操作
CDM_260905-195405-619106-381021
HAWK-7A (56191)
2026-09-05T
19:54:16+0000
1.558 km
极远距离
5.126099E-6 低风险 0.49
CDM_260906-053106-381006-525921
OBJECT A (65259)
2026-09-06T
05:31:00+0000
2.090 km
极远距离
2.460888E-6 低风险 0.43
CDM_260903-094706-261106-381021
BALKAN-1 (62611)
2026-09-03T
09:47:16+0000
2.936 km
极远距离
1.124311E-6 低风险 0.36